AAR3694 RKSI-RJFF

Flight info

Callsign AAR3694
Flight time N/A
Altitude 35000
Route OSPOT2A OSPOT Y782 TGU Y781 ANKUS/N0449F370 Y781 BESNA Y209 IKE
Aircraft A321/M-SDE3FGHIRWY/LB1

Departure

Time 2026-05-07 13:12
Airport Incheon International Airport (RKSI)

Arrival

Time N/A
Airport Fukuoka Airport (RJFF)
Time Latitude Longitude Altitude Speed Heading
2026-05-07 12:51 37.45373 126.45216 32 ft 0 kts 244°
2026-05-07 13:03 37.45378 126.45228 31 ft 4 kts 244°
2026-05-07 13:03 37.45391 126.45258 33 ft 4 kts 244°
2026-05-07 13:04 37.45401 126.45285 31 ft 3 kts 243°
2026-05-07 13:04 37.45415 126.45311 33 ft 4 kts 212°
2026-05-07 13:04 37.45438 126.45319 33 ft 4 kts 166°
2026-05-07 13:04 37.45463 126.45307 31 ft 4 kts 157°
2026-05-07 13:05 37.45474 126.45302 31 ft 0 kts 164°
2026-05-07 13:08 37.45465 126.45305 31 ft 3 kts 164°
2026-05-07 13:08 37.45428 126.45319 32 ft 8 kts 163°
2026-05-07 13:08 37.45366 126.45342 33 ft 10 kts 163°
2026-05-07 13:08 37.45293 126.45369 33 ft 12 kts 163°
2026-05-07 13:09 37.45234 126.45426 32 ft 11 kts 108°
2026-05-07 13:09 37.45226 126.45520 33 ft 11 kts 98°
2026-05-07 13:09 37.45212 126.45619 33 ft 12 kts 103°
2026-05-07 13:09 37.45222 126.45710 33 ft 11 kts 59°
2026-05-07 13:10 37.45268 126.45792 33 ft 12 kts 54°
2026-05-07 13:10 37.45318 126.45880 33 ft 11 kts 54°
2026-05-07 13:10 37.45355 126.45947 32 ft 9 kts 54°
2026-05-07 13:10 37.45393 126.46013 32 ft 10 kts 54°
2026-05-07 13:11 37.45435 126.46066 32 ft 8 kts 12°
2026-05-07 13:11 37.45471 126.46044 30 ft 0 kts 326°
2026-05-07 13:11 37.45482 126.46034 33 ft 16 kts 326°
2026-05-07 13:11 37.45800 126.45750 32 ft 93 kts 324°
2026-05-07 13:12 37.46505 126.45125 33 ft 152 kts 324°
2026-05-07 13:12 37.47443 126.44290 432 ft 167 kts 322°
2026-05-07 13:12 37.48399 126.43469 1211 ft 166 kts 326°
2026-05-07 13:12 37.49392 126.42662 1670 ft 178 kts 327°
2026-05-07 13:13 37.50505 126.41760 1888 ft 202 kts 327°
2026-05-07 13:13 37.51741 126.40749 2424 ft 215 kts 327°
2026-05-07 13:13 37.52996 126.39720 3276 ft 217 kts 327°
2026-05-07 13:13 37.54274 126.38668 4044 ft 222 kts 326°
2026-05-07 13:14 37.55590 126.37596 4798 ft 228 kts 329°
2026-05-07 13:14 37.57105 126.36877 5365 ft 239 kts 341°
2026-05-07 13:14 37.58687 126.36313 5481 ft 239 kts 342°
2026-05-07 13:14 37.60288 126.35752 5502 ft 238 kts 341°
2026-05-07 13:15 37.61902 126.35264 5490 ft 240 kts 353°
2026-05-07 13:15 37.63548 126.35646 5488 ft 248 kts 24°
2026-05-07 13:15 37.64858 126.37176 5494 ft 273 kts 58°
2026-05-07 13:15 37.65613 126.39423 5494 ft 281 kts 67°
2026-05-07 13:16 37.66268 126.41754 5483 ft 282 kts 70°
2026-05-07 13:16 37.66608 126.44189 5487 ft 284 kts 87°
2026-05-07 13:16 37.66394 126.46689 5685 ft 292 kts 104°
2026-05-07 13:16 37.65718 126.49099 6559 ft 292 kts 111°
2026-05-07 13:17 37.65012 126.51513 7320 ft 296 kts 111°
2026-05-07 13:17 37.64183 126.53910 8040 ft 300 kts 122°
2026-05-07 13:17 37.62948 126.56035 8772 ft 302 kts 137°
2026-05-07 13:17 37.61411 126.57849 9491 ft 305 kts 142°
2026-05-07 13:18 37.59825 126.59655 10179 ft 311 kts 142°
2026-05-07 13:18 37.58156 126.61543 10399 ft 334 kts 142°
2026-05-07 13:18 37.56373 126.63557 10626 ft 354 kts 142°
2026-05-07 13:18 37.54519 126.65664 11166 ft 362 kts 142°
2026-05-07 13:19 37.52644 126.67807 11817 ft 366 kts 142°
2026-05-07 13:19 37.50768 126.69951 12490 ft 371 kts 143°
2026-05-07 13:19 37.48849 126.72143 13152 ft 375 kts 143°
2026-05-07 13:19 37.46904 126.74360 13794 ft 379 kts 144°
2026-05-07 13:20 37.44965 126.76635 14356 ft 386 kts 139°
2026-05-07 13:20 37.43302 126.79346 14969 ft 398 kts 127°
2026-05-07 13:20 37.42081 126.82565 15611 ft 409 kts 114°
2026-05-07 13:20 37.41436 126.86038 16201 ft 419 kts 101°
2026-05-07 13:21 37.41336 126.89738 16782 ft 427 kts 93°
2026-05-07 13:21 37.41322 126.93486 17352 ft 428 kts 100°
2026-05-07 13:21 37.40601 126.97065 17898 ft 418 kts 121°
2026-05-07 13:21 37.39112 127.00116 18405 ft 404 kts 139°
2026-05-07 13:22 37.37102 127.02496 18904 ft 391 kts 154°
2026-05-07 13:22 37.34767 127.04163 19376 ft 382 kts 165°
2026-05-07 13:22 37.32362 127.05617 19857 ft 386 kts 165°
2026-05-07 13:22 37.30028 127.07026 20314 ft 390 kts 165°
2026-05-07 13:23 37.27591 127.08499 20798 ft 394 kts 165°
2026-05-07 13:23 37.25109 127.09998 21250 ft 399 kts 166°
2026-05-07 13:23 37.22594 127.11516 21666 ft 404 kts 165°
2026-05-07 13:23 37.20046 127.13056 22133 ft 408 kts 166°
2026-05-07 13:24 37.17476 127.14616 22607 ft 412 kts 166°
2026-05-07 13:24 37.14885 127.16184 23042 ft 416 kts 166°
2026-05-07 13:24 37.12258 127.17767 23476 ft 420 kts 166°
2026-05-07 13:24 37.09612 127.19362 23844 ft 424 kts 166°
2026-05-07 13:25 37.06947 127.20968 24226 ft 426 kts 166°
2026-05-07 13:25 37.04273 127.22580 24622 ft 428 kts 166°
2026-05-07 13:25 37.01578 127.24205 24985 ft 430 kts 166°
2026-05-07 13:25 36.98872 127.25834 25298 ft 432 kts 166°
2026-05-07 13:26 36.96145 127.27469 25629 ft 436 kts 166°
2026-05-07 13:26 36.93401 127.29112 25980 ft 438 kts 166°
2026-05-07 13:26 36.90646 127.30761 26335 ft 440 kts 166°
2026-05-07 13:26 36.87873 127.32420 26741 ft 442 kts 166°
2026-05-07 13:27 36.85127 127.34210 27098 ft 453 kts 160°
2026-05-07 13:27 36.82523 127.36551 27431 ft 470 kts 150°
2026-05-07 13:27 36.80157 127.39365 27770 ft 479 kts 146°
2026-05-07 13:27 36.77789 127.42306 28148 ft 481 kts 146°
2026-05-07 13:28 36.75413 127.45237 28504 ft 482 kts 146°
2026-05-07 13:28 36.73014 127.48180 28791 ft 484 kts 146°
2026-05-07 13:28 36.70609 127.51119 29122 ft 485 kts 146°
2026-05-07 13:28 36.68192 127.54063 29466 ft 486 kts 146°
2026-05-07 13:29 36.65769 127.57016 29775 ft 488 kts 146°
2026-05-07 13:29 36.63335 127.59985 30092 ft 490 kts 146°
2026-05-07 13:29 36.60897 127.62960 30352 ft 492 kts 146°
2026-05-07 13:29 36.58443 127.65950 30619 ft 494 kts 146°
2026-05-07 13:30 36.55978 127.68951 30881 ft 497 kts 146°
2026-05-07 13:30 36.53509 127.71956 31157 ft 498 kts 146°
2026-05-07 13:30 36.51033 127.74973 31532 ft 497 kts 146°
2026-05-07 13:30 36.48568 127.77979 31887 ft 497 kts 146°
2026-05-07 13:31 36.46107 127.80979 32255 ft 496 kts 146°
2026-05-07 13:31 36.43632 127.83988 32598 ft 496 kts 146°
2026-05-07 13:31 36.41165 127.86986 32934 ft 496 kts 146°
2026-05-07 13:31 36.38698 127.89977 33261 ft 496 kts 146°
2026-05-07 13:32 36.36227 127.92963 33573 ft 496 kts 146°
2026-05-07 13:32 36.33747 127.95950 33865 ft 496 kts 146°
2026-05-07 13:32 36.31260 127.98942 34101 ft 498 kts 146°
2026-05-07 13:32 36.28810 128.01896 34368 ft 498 kts 146°
2026-05-07 13:33 36.26301 128.04924 34677 ft 497 kts 146°
2026-05-07 13:33 36.23826 128.07911 34873 ft 497 kts 146°
2026-05-07 13:33 36.18922 128.13834 34913 ft 489 kts 146°
2026-05-07 13:34 36.11647 128.22551 34911 ft 487 kts 146°
2026-05-07 13:35 36.06782 128.28371 34910 ft 486 kts 146°
2026-05-07 13:35 36.01918 128.34181 34908 ft 486 kts 146°
2026-05-07 13:36 35.97055 128.39974 34891 ft 486 kts 146°
2026-05-07 13:36 35.92185 128.45767 34899 ft 486 kts 145°
2026-05-07 13:37 35.87314 128.51545 34893 ft 484 kts 147°
2026-05-07 13:37 35.84715 128.54071 34919 ft 470 kts 157°
2026-05-07 13:37 35.81904 128.55993 34918 ft 456 kts 167°
2026-05-07 13:37 35.78966 128.57320 34917 ft 443 kts 176°
2026-05-07 13:38 35.75996 128.58079 34897 ft 430 kts 184°
2026-05-07 13:38 35.70153 128.58098 34870 ft 415 kts 194°
2026-05-07 13:39 35.64387 128.57564 34883 ft 416 kts 194°
2026-05-07 13:39 35.58643 128.57056 34894 ft 417 kts 194°
2026-05-07 13:40 35.52837 128.56540 34874 ft 417 kts 193°
2026-05-07 13:40 35.49903 128.56528 34884 ft 428 kts 184°
2026-05-07 13:40 35.46925 128.57143 34893 ft 441 kts 174°
2026-05-07 13:40 35.43994 128.58436 34896 ft 455 kts 164°
2026-05-07 13:41 35.41136 128.60136 34898 ft 457 kts 163°
2026-05-07 13:41 35.35422 128.63552 34911 ft 457 kts 164°
2026-05-07 13:42 35.29692 128.66960 34710 ft 457 kts 163°
2026-05-07 13:42 35.26827 128.68658 34442 ft 456 kts 163°
2026-05-07 13:42 35.23967 128.70352 34078 ft 456 kts 163°
2026-05-07 13:42 35.21116 128.72039 33567 ft 454 kts 163°
2026-05-07 13:43 35.18311 128.73697 33057 ft 452 kts 163°
2026-05-07 13:43 35.15479 128.75365 32539 ft 450 kts 163°
2026-05-07 13:43 35.12670 128.77018 32034 ft 446 kts 163°
2026-05-07 13:43 35.09886 128.78656 31546 ft 443 kts 163°
2026-05-07 13:44 35.07123 128.80287 31063 ft 440 kts 163°
2026-05-07 13:44 35.04377 128.81908 30599 ft 437 kts 163°
2026-05-07 13:44 35.01645 128.83522 30106 ft 435 kts 162°
2026-05-07 13:44 34.99008 128.85384 29579 ft 438 kts 156°
2026-05-07 13:45 34.96434 128.87338 29038 ft 435 kts 156°
2026-05-07 13:45 34.93868 128.89278 28507 ft 432 kts 156°
2026-05-07 13:45 34.91321 128.91202 27988 ft 429 kts 156°
2026-05-07 13:45 34.88787 128.93114 27479 ft 427 kts 156°
2026-05-07 13:46 34.86271 128.95011 26984 ft 424 kts 156°
2026-05-07 13:46 34.83772 128.96893 26493 ft 421 kts 156°
2026-05-07 13:46 34.81286 128.98765 26015 ft 419 kts 156°
2026-05-07 13:46 34.78816 129.00620 25545 ft 417 kts 156°
2026-05-07 13:47 34.76355 129.02465 25084 ft 415 kts 156°
2026-05-07 13:47 34.74731 129.03680 24757 ft 413 kts 156°
2026-05-07 13:47 34.72286 129.05510 24305 ft 411 kts 156°
2026-05-07 13:47 34.69032 129.07943 23708 ft 409 kts 156°
2026-05-07 13:48 34.67430 129.09141 23413 ft 408 kts 156°
2026-05-07 13:48 34.65020 129.10941 22882 ft 406 kts 156°
2026-05-07 13:48 34.62617 129.12737 22352 ft 405 kts 155°
2026-05-07 13:48 34.60218 129.14533 21838 ft 403 kts 155°
2026-05-07 13:49 34.57838 129.16318 21345 ft 401 kts 155°
2026-05-07 13:49 34.55470 129.18093 20843 ft 396 kts 155°
2026-05-07 13:49 34.53163 129.19822 20363 ft 384 kts 156°
2026-05-07 13:49 34.50920 129.21502 19887 ft 373 kts 156°
2026-05-07 13:50 34.48771 129.23109 19423 ft 364 kts 156°
2026-05-07 13:50 34.46635 129.24700 18954 ft 357 kts 156°
2026-05-07 13:50 34.43817 129.26794 18349 ft 353 kts 156°
2026-05-07 13:50 34.42427 129.27823 18028 ft 353 kts 156°
2026-05-07 13:51 34.40337 129.29371 17511 ft 352 kts 156°
2026-05-07 13:51 34.38254 129.30915 16991 ft 351 kts 156°
2026-05-07 13:51 34.36165 129.32467 16485 ft 350 kts 156°
2026-05-07 13:51 34.34095 129.34009 15991 ft 349 kts 155°
2026-05-07 13:52 34.32028 129.35544 15497 ft 349 kts 155°
2026-05-07 13:52 34.29963 129.37074 15017 ft 348 kts 155°
2026-05-07 13:52 34.27899 129.38599 14543 ft 347 kts 155°
2026-05-07 13:52 34.25841 129.40117 14075 ft 346 kts 154°
2026-05-07 13:53 34.23785 129.41639 13593 ft 345 kts 154°
2026-05-07 13:53 34.21739 129.43158 13106 ft 344 kts 154°
2026-05-07 13:53 34.19736 129.44647 12939 ft 332 kts 154°
2026-05-07 13:53 34.17778 129.46100 12979 ft 330 kts 154°
2026-05-07 13:54 34.15823 129.47542 12988 ft 330 kts 154°
2026-05-07 13:54 34.13861 129.48986 12985 ft 330 kts 154°
2026-05-07 13:54 34.11926 129.50406 12985 ft 330 kts 154°
2026-05-07 13:54 34.09970 129.51844 12985 ft 329 kts 154°
2026-05-07 13:55 34.08007 129.53286 12988 ft 329 kts 154°
2026-05-07 13:55 34.06051 129.54724 12991 ft 329 kts 154°
2026-05-07 13:55 34.04094 129.56164 12991 ft 330 kts 154°
2026-05-07 13:55 34.02134 129.57609 12991 ft 330 kts 154°
2026-05-07 13:56 34.00177 129.59050 12985 ft 330 kts 154°
2026-05-07 13:56 33.98183 129.60378 12983 ft 324 kts 165°
2026-05-07 13:56 33.96041 129.61146 12989 ft 320 kts 171°
2026-05-07 13:56 33.93885 129.61806 12988 ft 320 kts 172°
2026-05-07 13:57 33.91728 129.62458 12991 ft 320 kts 172°
2026-05-07 13:57 33.89567 129.63109 12988 ft 320 kts 172°
2026-05-07 13:57 33.87407 129.63759 12988 ft 320 kts 172°
2026-05-07 13:57 33.85247 129.64408 12988 ft 320 kts 172°
2026-05-07 13:58 33.83087 129.65057 12986 ft 320 kts 172°
2026-05-07 13:58 33.80928 129.65706 12987 ft 320 kts 172°
2026-05-07 13:58 33.78769 129.66355 12988 ft 319 kts 172°
2026-05-07 13:58 33.76657 129.66993 12788 ft 311 kts 172°
2026-05-07 13:59 33.74610 129.67612 12516 ft 305 kts 172°
2026-05-07 13:59 33.72563 129.68232 12265 ft 302 kts 172°
2026-05-07 13:59 33.70527 129.68848 12021 ft 301 kts 172°
2026-05-07 13:59 33.68503 129.69457 11760 ft 300 kts 172°
2026-05-07 14:00 33.66481 129.70064 11506 ft 299 kts 172°
2026-05-07 14:00 33.64470 129.70668 11265 ft 298 kts 172°
2026-05-07 14:00 33.62458 129.71270 11024 ft 297 kts 172°
2026-05-07 14:00 33.60428 129.71876 10780 ft 296 kts 172°
2026-05-07 14:01 33.58452 129.72463 10475 ft 296 kts 172°
2026-05-07 14:01 33.56448 129.73035 10118 ft 296 kts 172°
2026-05-07 14:01 33.54436 129.73554 9759 ft 296 kts 172°
2026-05-07 14:01 33.52486 129.74355 9369 ft 301 kts 154°
2026-05-07 14:02 33.50924 129.76054 8983 ft 309 kts 128°
2026-05-07 14:02 33.50078 129.78429 8602 ft 313 kts 102°
2026-05-07 14:02 33.50126 129.81030 8231 ft 314 kts 75°
2026-05-07 14:02 33.50936 129.83446 7858 ft 311 kts 63°
2026-05-07 14:03 33.51909 129.85753 7491 ft 310 kts 62°
2026-05-07 14:03 33.52904 129.88047 7125 ft 309 kts 62°
2026-05-07 14:03 33.53902 129.90320 6765 ft 308 kts 62°
2026-05-07 14:03 33.54890 129.92552 6408 ft 306 kts 62°
2026-05-07 14:04 33.55894 129.94804 6039 ft 305 kts 62°
2026-05-07 14:04 33.56898 129.97034 5662 ft 303 kts 62°
2026-05-07 14:04 33.57902 129.99251 5280 ft 302 kts 62°
2026-05-07 14:04 33.58900 130.01455 4924 ft 300 kts 62°
2026-05-07 14:05 33.59920 130.03629 4546 ft 299 kts 56°
2026-05-07 14:05 33.61402 130.05335 4162 ft 296 kts 28°
2026-05-07 14:05 33.63308 130.06054 3967 ft 280 kts 359°
2026-05-07 14:05 33.65175 130.05648 3975 ft 271 kts 330°
2026-05-07 14:06 33.66688 130.04359 3990 ft 266 kts 314°
2026-05-07 14:06 33.68041 130.02855 3987 ft 265 kts 312°
2026-05-07 14:06 33.69370 130.01333 3980 ft 264 kts 311°
2026-05-07 14:06 33.70701 129.99805 3992 ft 265 kts 311°
2026-05-07 14:07 33.72016 129.98301 3983 ft 264 kts 311°
2026-05-07 14:07 33.73346 129.96781 3988 ft 264 kts 312°
2026-05-07 14:07 33.74671 129.95256 3989 ft 264 kts 311°
2026-05-07 14:07 33.75973 129.93758 3976 ft 251 kts 311°
2026-05-07 14:08 33.77201 129.92360 3981 ft 235 kts 311°
2026-05-07 14:08 33.78359 129.91055 3981 ft 223 kts 312°
2026-05-07 14:08 33.79489 129.89780 3985 ft 223 kts 311°
2026-05-07 14:08 33.80620 129.88510 3985 ft 222 kts 312°
2026-05-07 14:09 33.81756 129.87234 3992 ft 223 kts 311°
2026-05-07 14:09 33.82888 129.85961 3988 ft 223 kts 311°
2026-05-07 14:09 33.84018 129.84687 3992 ft 222 kts 311°
2026-05-07 14:09 33.85224 129.83520 3983 ft 228 kts 330°
2026-05-07 14:10 33.86800 129.83163 3982 ft 238 kts
2026-05-07 14:10 33.88350 129.83881 3978 ft 244 kts 38°
2026-05-07 14:10 33.89451 129.85425 3985 ft 246 kts 58°
2026-05-07 14:10 33.90330 129.87189 3984 ft 246 kts 61°
2026-05-07 14:11 33.91170 129.88986 3987 ft 246 kts 62°
2026-05-07 14:11 33.92000 129.90784 3990 ft 245 kts 62°
2026-05-07 14:11 33.92834 129.92592 3784 ft 246 kts 62°
2026-05-07 14:11 33.93665 129.94387 3531 ft 244 kts 62°
2026-05-07 14:12 33.94481 129.96145 3288 ft 243 kts 62°
2026-05-07 14:12 33.95109 129.98004 3053 ft 237 kts 87°
2026-05-07 14:12 33.94883 129.99910 2980 ft 228 kts 121°
2026-05-07 14:12 33.94062 130.01542 2987 ft 228 kts 130°
2026-05-07 14:13 33.93133 130.03094 2980 ft 228 kts 131°
2026-05-07 14:13 33.92194 130.04625 2985 ft 227 kts 132°
2026-05-07 14:13 33.91259 130.06159 2986 ft 227 kts 131°
2026-05-07 14:13 33.90326 130.07686 2987 ft 226 kts 131°
2026-05-07 14:14 33.89386 130.09209 2985 ft 227 kts 131°
2026-05-07 14:14 33.88444 130.10732 2985 ft 227 kts 131°
2026-05-07 14:14 33.87505 130.12258 2985 ft 227 kts 131°
2026-05-07 14:14 33.86569 130.13786 2985 ft 226 kts 131°
2026-05-07 14:15 33.85629 130.15311 2989 ft 227 kts 131°
2026-05-07 14:15 33.84698 130.16819 2988 ft 227 kts 131°
2026-05-07 14:15 33.83714 130.18295 2988 ft 223 kts 144°
2026-05-07 14:15 33.82424 130.19256 2985 ft 217 kts 159°
2026-05-07 14:16 33.81051 130.20012 2988 ft 216 kts 161°
2026-05-07 14:16 33.79674 130.20737 2987 ft 217 kts 161°
2026-05-07 14:16 33.78286 130.21460 2986 ft 218 kts 162°
2026-05-07 14:16 33.76896 130.22183 2985 ft 217 kts 162°
2026-05-07 14:17 33.75507 130.22904 2985 ft 217 kts 162°
2026-05-07 14:17 33.74121 130.23623 2985 ft 216 kts 162°
2026-05-07 14:17 33.72741 130.24338 2985 ft 216 kts 162°
2026-05-07 14:17 33.71360 130.25062 2985 ft 217 kts 158°
2026-05-07 14:18 33.70177 130.26217 2986 ft 224 kts 135°
2026-05-07 14:18 33.69181 130.27655 2744 ft 226 kts 132°
2026-05-07 14:18 33.68219 130.29117 2491 ft 223 kts 132°
2026-05-07 14:18 33.67259 130.30582 2245 ft 222 kts 131°
2026-05-07 14:19 33.66305 130.32019 2064 ft 220 kts 131°
2026-05-07 14:19 33.65345 130.33452 1974 ft 220 kts 131°
2026-05-07 14:19 33.64243 130.34692 1971 ft 216 kts 154°
2026-05-07 14:19 33.62903 130.35532 1984 ft 217 kts 153°
2026-05-07 14:20 33.61601 130.36456 1982 ft 217 kts 152°
2026-05-07 14:20 33.60308 130.37396 1986 ft 217 kts 152°
2026-05-07 14:20 33.59016 130.38343 1986 ft 218 kts 152°
2026-05-07 14:20 33.57728 130.39288 1986 ft 217 kts 152°
2026-05-07 14:21 33.56442 130.40227 1986 ft 214 kts 152°
2026-05-07 14:21 33.55223 130.41120 1974 ft 197 kts 152°
2026-05-07 14:21 33.54080 130.41969 2010 ft 190 kts 152°
2026-05-07 14:21 33.52971 130.42799 1986 ft 187 kts 152°
2026-05-07 14:22 33.51869 130.43619 1983 ft 186 kts 152°
2026-05-07 14:22 33.50769 130.44437 1980 ft 185 kts 152°
2026-05-07 14:22 33.49679 130.45258 1983 ft 185 kts 152°
2026-05-07 14:22 33.48671 130.46231 1986 ft 191 kts 128°
2026-05-07 14:23 33.48304 130.47741 1977 ft 186 kts 87°
2026-05-07 14:23 33.48773 130.49060 1875 ft 169 kts 46°
2026-05-07 14:23 33.49757 130.49645 1695 ft 156 kts
2026-05-07 14:23 33.50826 130.49665 1534 ft 152 kts 356°
2026-05-07 14:24 33.51861 130.49490 1307 ft 148 kts 341°
2026-05-07 14:24 33.52788 130.48982 1080 ft 147 kts 328°
2026-05-07 14:24 33.53697 130.48424 897 ft 147 kts 332°
2026-05-07 14:24 33.54571 130.47795 735 ft 146 kts 327°